{"data":{"norad_id":64329,"intl_designator":"2025-124N","name":"STARLINK-11734 [DTC]","alt_names":[],"object_type":"PAYLOAD","status":"ACTIVE","operator":null,"country":"US","launch_date":"2025-06-10","launch_site_code":"AFETR","launch_vehicle":null,"mission":null,"orbit_class":"UNKNOWN","rcs_meters":null,"size_class":null,"mass_kg":null,"dimensions":null,"purposes":["comms"],"wikipedia_slug":null,"has_3d_model":false,"image_url":null,"decayed_at":null,"tle_current":{"epoch":"2026-05-24T16:45:28.743840Z","epoch_age_seconds":104630,"freshness":"FRESH","line1":"1 64329U 25124N   26144.69824935  .00180082  00000+0  13756-2 0  9993","line2":"2 64329  42.9993 290.6018 0002482 298.6889  61.3729 15.70858700 54798","mean_motion":15.708587,"eccentricity":0.0002482,"inclination_deg":42.9993,"raan_deg":290.6018,"arg_perigee_deg":298.6889,"mean_anomaly_deg":61.3729,"bstar":0.0013756,"rev_number":5479,"period_min":91.669607202736,"perigee_km":354.77009158703,"apogee_km":358.11313641101,"semimajor_km":6734.578613999,"source":"CELESTRAK","updated_at":"2026-05-25T13:38:20.396371Z"}}}